When you browse on this site, cookies collect data to enhance your experience and personalize the content and advertising you see.
Visit our Privacy Policy to learn more. By continuing to use the site, you agree to this use of cookies and data.
  • en Suisse
  • Liste des pays
  • À 7 jours
  • Température de l'eau
  • Carte météo
  • Widgets météo
  • user-avatar
    Se connecter

    Météo par heure à Tuzla

    Ce jour, 2 Avril, Jeudi

    Heure Température Précipitation Vent Pression Humidité
    00:00 -3°C° 0 mm 0 m/s 721 mmHg 85%
    01:00 -3°C° 0 mm 0 m/s 721 mmHg 84%
    02:00 -3°C° 0 mm 0 m/s 721 mmHg 84%
    03:00 -3°C° 0 mm 0 m/s 720 mmHg 84%
    04:00 -3°C° 0 mm 0 m/s 720 mmHg 84%
    05:00 -2°C° 0 mm 0 m/s 720 mmHg 78%
    06:00 0°C° 0 mm 1 m/s 720 mmHg 72%
    07:00 +1°C° 0 mm 1 m/s 721 mmHg 67%
    08:00 +3°C° 0 mm 1 m/s 720 mmHg 59%
    09:00 +6°C° 0 mm 1 m/s 720 mmHg 52%
    10:00 +8°C° 0 mm 1 m/s 720 mmHg 45%
    11:00 +9°C° 0 mm 1 m/s 720 mmHg 44%
    12:00 +10°C° 0 mm 1 m/s 720 mmHg 44%
    13:00 +12°C° 0 mm 1 m/s 719 mmHg 43%
    14:00 +10°C° 0 mm 2 m/s 719 mmHg 46%
    15:00 +10°C° 0 mm 2 m/s 718 mmHg 49%
    16:00 +10°C° 0 mm 2 m/s 718 mmHg 52%
    17:00 +8°C° 0 mm 1 m/s 718 mmHg 63%
    18:00 +6°C° 0 mm 1 m/s 718 mmHg 73%
    19:00 +3°C° 0 mm 1 m/s 717 mmHg 84%
    20:00 +3°C° 0 mm 1 m/s 718 mmHg 85%
    21:00 +3°C° 0 mm 1 m/s 718 mmHg 86%
    22:00 +2°C° 0 mm 1 m/s 718 mmHg 87%
    23:00 +2°C° 0 mm 1 m/s 718 mmHg 87%

    Demain, 3 Avril, Vendredi

    Heure Température Précipitation Vent Pression Humidité
    00:00 +2°C° 0 mm 1 m/s 718 mmHg 87%
    01:00 +2°C° 0 mm 1 m/s 718 mmHg 87%
    02:00 +2°C° 0 mm 1 m/s 718 mmHg 87%
    03:00 +1°C° 0 mm 1 m/s 718 mmHg 87%
    04:00 +1°C° 0 mm 1 m/s 717 mmHg 87%
    05:00 +2°C° 0 mm 1 m/s 718 mmHg 82%
    06:00 +3°C° 0 mm 1 m/s 718 mmHg 77%
    07:00 +4°C° 0 mm 0 m/s 718 mmHg 72%
    08:00 +7°C° 0 mm 1 m/s 719 mmHg 65%
    09:00 +9°C° 0 mm 1 m/s 719 mmHg 58%
    10:00 +12°C° 0 mm 1 m/s 719 mmHg 51%
    11:00 +12°C° 0 mm 1 m/s 719 mmHg 49%
    12:00 +13°C° 0 mm 1 m/s 719 mmHg 48%
    13:00 +13°C° 0 mm 2 m/s 719 mmHg 47%
    14:00 +13°C° 0 mm 2 m/s 719 mmHg 49%
    15:00 +12°C° 0 mm 2 m/s 719 mmHg 52%
    16:00 +11°C° 0 mm 3 m/s 718 mmHg 54%
    17:00 +9°C° 0 mm 2 m/s 719 mmHg 62%
    18:00 +8°C° 0 mm 1 m/s 719 mmHg 70%
    19:00 +6°C° 0 mm 1 m/s 719 mmHg 78%
    20:00 +5°C° 0 mm 0 m/s 720 mmHg 78%
    21:00 +4°C° 0 mm 0 m/s 720 mmHg 79%
    22:00 +4°C° 0 mm 0 m/s 721 mmHg 80%
    23:00 +4°C° 0 mm 0 m/s 721 mmHg 80%

    Après-demain, 4 Avril, Samedi

    Heure Température Précipitation Vent Pression Humidité
    00:00 +3°C° 0 mm 0 m/s 721 mmHg 79%
    01:00 +3°C° 0 mm 0 m/s 721 mmHg 79%
    02:00 +3°C° 0 mm 0 m/s 721 mmHg 81%
    03:00 +3°C° 0 mm 0 m/s 721 mmHg 82%
    04:00 +2°C° 0 mm 0 m/s 722 mmHg 83%
    05:00 +4°C° 0 mm 1 m/s 722 mmHg 80%
    06:00 +5°C° 0 mm 1 m/s 723 mmHg 77%
    07:00 +6°C° 0 mm 1 m/s 723 mmHg 74%
    08:00 +7°C° 0 mm 2 m/s 723 mmHg 68%
    09:00 +8°C° 0 mm 3 m/s 724 mmHg 62%
    10:00 +10°C° 0 mm 3 m/s 724 mmHg 56%
    11:00 +10°C° 0 mm 4 m/s 724 mmHg 55%
    12:00 +11°C° 0 mm 4 m/s 724 mmHg 54%
    13:00 +12°C° 0 mm 4 m/s 724 mmHg 53%
    14:00 +11°C° 0 mm 4 m/s 724 mmHg 55%
    15:00 +11°C° 0 mm 4 m/s 724 mmHg 58%
    16:00 +11°C° 0 mm 4 m/s 724 mmHg 61%
    17:00 +8°C° 0.1 mm 4 m/s 724 mmHg 67%
    18:00 +8°C° 0.1 mm 3 m/s 724 mmHg 74%
    19:00 +7°C° 0.1 mm 2 m/s 725 mmHg 80%
    20:00 +7°C° 0 mm 2 m/s 725 mmHg 81%
    21:00 +6°C° 0 mm 2 m/s 726 mmHg 83%
    22:00 +7°C° 0 mm 1 m/s 726 mmHg 85%
    23:00 +6°C° 0 mm 1 m/s 726 mmHg 87%

    5 Avril, Dimanche

    Heure Température Précipitation Vent Pression Humidité
    00:00 +6°C° 0 mm 1 m/s 726 mmHg 89%
    01:00 +5°C° 0 mm 1 m/s 726 mmHg 91%
    02:00 +5°C° 0 mm 1 m/s 726 mmHg 91%
    03:00 +5°C° 0 mm 1 m/s 727 mmHg 90%
    04:00 +4°C° 0 mm 1 m/s 727 mmHg 90%
    05:00 +5°C° 0 mm 1 m/s 727 mmHg 87%
    06:00 +5°C° 0 mm 1 m/s 727 mmHg 85%
    07:00 +6°C° 0 mm 1 m/s 727 mmHg 82%
    08:00 +7°C° 0 mm 2 m/s 728 mmHg 76%
    09:00 +8°C° 0 mm 2 m/s 728 mmHg 70%
    10:00 +10°C° 0 mm 2 m/s 728 mmHg 65%
    11:00 +10°C° 0 mm 3 m/s 728 mmHg 63%
    12:00 +11°C° 0 mm 3 m/s 728 mmHg 62%
    13:00 +12°C° 0 mm 4 m/s 728 mmHg 60%
    14:00 +11°C° 0.1 mm 4 m/s 728 mmHg 63%
    15:00 +11°C° 0.1 mm 3 m/s 728 mmHg 65%
    16:00 +11°C° 0.1 mm 3 m/s 728 mmHg 67%
    17:00 +10°C° 0.1 mm 3 m/s 728 mmHg 73%
    18:00 +8°C° 0.1 mm 2 m/s 728 mmHg 78%
    19:00 +7°C° 0.1 mm 2 m/s 728 mmHg 83%
    20:00 +6°C° 0 mm 2 m/s 728 mmHg 84%
    21:00 +6°C° 0 mm 1 m/s 729 mmHg 85%
    22:00 +6°C° 0 mm 1 m/s 729 mmHg 86%
    23:00 +5°C° 0 mm 1 m/s 729 mmHg 86%

    6 Avril, Lundi

    Heure Température Précipitation Vent Pression Humidité
    00:00 +5°C° 0 mm 1 m/s 729 mmHg 87%
    01:00 +4°C° 0 mm 1 m/s 729 mmHg 87%
    02:00 +4°C° 0 mm 1 m/s 729 mmHg 85%
    03:00 +3°C° 0 mm 1 m/s 729 mmHg 84%
    04:00 +3°C° 0 mm 1 m/s 729 mmHg 82%
    05:00 +4°C° 0 mm 1 m/s 729 mmHg 77%
    06:00 +4°C° 0 mm 1 m/s 730 mmHg 72%
    07:00 +5°C° 0 mm 1 m/s 730 mmHg 66%
    08:00 +6°C° 0 mm 2 m/s 730 mmHg 57%
    09:00 +8°C° 0 mm 2 m/s 730 mmHg 48%
    10:00 +10°C° 0 mm 3 m/s 730 mmHg 39%
    11:00 +12°C° 0 mm 4 m/s 730 mmHg 37%
    12:00 +13°C° 0 mm 4 m/s 730 mmHg 34%
    13:00 +14°C° 0 mm 5 m/s 730 mmHg 32%
    14:00 +14°C° 0 mm 5 m/s 730 mmHg 33%
    15:00 +13°C° 0 mm 5 m/s 730 mmHg 35%
    16:00 +13°C° 0 mm 5 m/s 730 mmHg 36%
    17:00 +11°C° 0 mm 4 m/s 730 mmHg 43%
    18:00 +8°C° 0 mm 3 m/s 730 mmHg 50%
    19:00 +6°C° 0 mm 2 m/s 730 mmHg 58%
    20:00 +5°C° 0 mm 2 m/s 730 mmHg 61%
    21:00 +4°C° 0 mm 2 m/s 731 mmHg 65%
    22:00 +3°C° 0 mm 2 m/s 731 mmHg 68%
    23:00 +3°C° 0 mm 2 m/s 731 mmHg 70%

    7 Avril, Mardi

    Heure Température Précipitation Vent Pression Humidité
    00:00 +3°C° 0 mm 2 m/s 731 mmHg 71%
    01:00 +2°C° 0 mm 2 m/s 731 mmHg 73%
    02:00 +3°C° 0 mm 1 m/s 731 mmHg 74%
    03:00 +2°C° 0 mm 1 m/s 731 mmHg 74%
    04:00 +2°C° 0 mm 1 m/s 731 mmHg 75%
    05:00 +3°C° 0 mm 1 m/s 731 mmHg 69%
    06:00 +4°C° 0 mm 1 m/s 731 mmHg 64%
    07:00 +6°C° 0 mm 1 m/s 732 mmHg 59%
    08:00 +8°C° 0 mm 1 m/s 732 mmHg 51%
    09:00 +11°C° 0 mm 1 m/s 732 mmHg 43%
    10:00 +13°C° 0 mm 1 m/s 732 mmHg 35%
    11:00 +14°C° 0 mm 2 m/s 732 mmHg 34%
    12:00 +15°C° 0 mm 2 m/s 732 mmHg 32%
    13:00 +16°C° 0 mm 3 m/s 732 mmHg 31%
    14:00 +16°C° 0 mm 3 m/s 732 mmHg 33%
    15:00 +14°C° 0 mm 3 m/s 731 mmHg 35%
    16:00 +14°C° 0 mm 4 m/s 731 mmHg 37%
    17:00 +11°C° 0 mm 3 m/s 731 mmHg 47%
    18:00 +9°C° 0 mm 2 m/s 731 mmHg 56%
    19:00 +7°C° 0 mm 1 m/s 731 mmHg 65%
    20:00 +7°C° 0 mm 1 m/s 731 mmHg 67%
    21:00 +6°C° 0 mm 1 m/s 731 mmHg 69%
    22:00 +5°C° 0 mm 1 m/s 732 mmHg 72%
    23:00 +4°C° 0 mm 1 m/s 731 mmHg 72%
    Voir plus